Weather in Tukayevo

Russia / Republic of Bashkortostan     54°12′55″N   55°49′29″E
temp.,
°C
wind,
m/s
gust,
m/s
humid.,
%
clouds,
%
prec.,
mm/h
press.,
hPa
HPBL,
m
28 february, sun
sun2823:00−8sse71394100 1.3 1002350
02:00−6sse61195100 0.9 1000313
05:00−6sse5996100 2.4 1000297
08:00−6se4896100 1.0 1000233
11:00−4se4696100 1.7 1000264
14:00−3ene2395100 0.7 1000240
17:00−4n469699 1.3 1002344
20:00−9nw489589 0.3 1005217
1 march, mon
mon123:00−12nw369687 0.4 1008133
02:00−12wnw469698 0.2 1010172
05:00−13wnw369699 0.6 1012189
08:00−14wnw359696 0.3 1013178
11:00−13nw359491 0.4 1015325
14:00−12wnw3492100 0.1 1016405
17:00−13wnw3493100 0.3 1017394
20:00−18wnw229899 0.1 101821
2 march, tue
tue223:00−21w2210092 0.1 101920
02:00−22sw229984 0.0 101920
05:00−22ssw349960 0.0 101852
08:00−23s599730 0.0 1017137
11:00−18s6119254 0.0 1014312
14:00−15s8139299 0.0 1011415
17:00−14s91594100 0.3 1009506
20:00−13ssw91593100 0.8 1007641
3 march, wed
wed323:00−11s81593100 1.5 1005582
02:00−9s81591100 0.4 1002536
05:00−5s61295100 0.8 1000546
08:00−4ssw61195100 0.8 998472
11:00−4sw599498 1.2 998375
14:00−2sw579595 0.1 998553
17:00−3wnw699297 0.4 999566
20:00−6nw41093100 0.1 1001414
4 march, thu
thu423:00−6wnw3896100 0.2 1003442
02:00−8w3596100 0.2 1004104
05:00−8wnw379699 0.7 1005188
08:00−9wnw3896100 0.4 1007211
11:00−10wnw589493 0.4 1009286
14:00−8w479195 0.0 1009437
17:00−7wsw389073 0.0 1010403
20:00−9sw61292100 0.0 1010398